マスター彗星

C/2016 N4 ( MASTER )

English version
Home page
Updated on July 30, 2018

---------------------------------------------------------------------

・ プロフィール

発見日 2016年7月15日
発見光度 16.8等
発見者 Mobile Astronomical System of the Telescope-Robots (MASTER)

・ 写真集

・ 軌道要素

Epoch 2017 Sept. 4.0 TT = JDT 2458000.5
T 2017 Sept. 16.59955 TT                                MPCW
q   3.1991000            (2000.0)            P               Q
z  +0.0001940      Peri.   55.95579     +0.58262456     -0.80666449
 +/-0.0000004      Node   354.03140     -0.14120871     +0.01973156
e   0.9993795      Incl.   72.55729     +0.80038036     +0.59068018
From 1534 observations 2015 Sept. 11-2018 Mar. 25, mean residual 0".5.

・ 星図

・ 光度変化

        m1 = 7.0 + 5 logΔ + 10.0 log r(t + 200)

---------------------------------------------------------------------

軌道要素はM.P.E.C. 2018-F152に掲載されたものです。
星図はステラナビゲータ Ver.10 (アストロアーツ) で作成したものです。
光度グラフはComet for Windowsで作成したものです。

---------------------------------------------------------------------

Copyright(C) Seiichi Yoshida (comet@aerith.net). All rights reserved.